STARLINK-32404, 61710

Orbit data source: Space-Track

STARLINK-32404, 61710 is a payload satellite owned by SpaceX/Seattle (US) in LEO that was launched on Wed, 30 Oct 2024 UTC via an FALCON 9 launch vehicle from the Air Force Eastern Test Range (AFETR). Payloads include a variety of satellites, spacecraft, and rockets equipped with specific instruments for various scientific and technological missions. These include communications satellites like Starlink; space stations such as the ISS; scientific satellites like the Hubble; Earth observation satellites from companies like Planet Labs, Umbra, and HawkEye 360; GPS; miniature CubeSats for education and research; and military/defense satellites.

Loading next visibility...
STARLINK-32404 details
Identifier
61710, 2024-196D
Orbit
LEO
Last TLE update7 hours ago
Origin
Flag of USSpaceX/Seattle (US)
ManufacturerSpaceX/Seattle
MissionOperational spacecraft
Bus & MotorSTARLINK V2M, Unknown motor
Mass730 kg wet, ~700 kg dry
Launch date (UTC)
2024-10-30 (1 month ago)
Launch vehicle
FALCON 9
Launch site
Air Force Eastern Test Range (AFETR)
Object type
Payload
Rocket body
Debris
Shape & HBRUnknown
Radar Cross SectionLarge (>1 m²)

Expand to show TLE details & history

TLE from 7 hours ago
0 STARLINK-32404
1 61710U 24196D   24337.16668981 -.01059361  00000-0 -28018-1 0  9998
2 61710  53.1608  93.5884 0001021  85.0786  61.3891 15.40456087  6302
Epoch: 2024-12-02T04:00Z
Definitive object data (Epoch: 2024-12-02T04:00:01.999Z)
Latitude26.30655°
Longitude120.47422°
Altitude445.582 km
Speed7.649 km/s
True Right ascension16h 47m 54s
True Declination26° 09' 50"
Sunlit
Object was in daylight at TLE epoch
Visualization TLE readout
Latitude-47.27942°
Longitude-93.04681°
Altitude463.436 km
Speed7.634 km/s
Apparent Right ascension23h 30m 23s
Apparent Declination-53° 03' 09"
Sunlit
Object is in daylight
Visualization observer readout
Local Sidereal Time08:38:41
Azimuth231.081° WSW
Elevation-58.253°
Doppler factor1
Orbital elements
Apogee altitude445.716 km
Perigee altitude444.323 km
Semi-major axis6,823.157 km
Eccentricity0.0001021
Inclination53.1608°
RAAN93.5884°
Arg. of periapsis85.0786°
True anomaly61.39937°
Mean anomaly61.3891°
Eccentric anomaly61.39424°
Mean motion3.85093 °/min
BSTAR-0.028018
Orbital period93.48 mins
Loading maneuver chart data...
Loading historical data...
Loading historical data...
Loading historical data...
Loading historical data...
Loading historical data...
Loading historical data...
Loading historical data...

STARLINK-32404 Visibility forecast

Observer location: undefined°, undefined

Span
Click to sort rows by Start time (UTC) header in descending order
Start Az.
Max El. time (UTC)
Max El. Az.
Max El.
End time (UTC)
End Az.
6 mins2024-12-02 11:21:03.052Z248.792° W2024-12-02 11:24:03.052Z317.531° NNW37.121°2024-12-02 11:27:03.052Z38.594° NE
5 mins2024-12-02 17:55:03.052Z295.195° NW2024-12-02 17:57:03.052Z189.685° SSW40.194°2024-12-02 18:00:03.052Z142.447° SSE
6 mins2024-12-03 10:44:03.052Z239.799° WSW2024-12-03 10:46:03.052Z269.359° W40.403°2024-12-03 10:50:03.052Z45.989° ENE
|